Time,TemperatureF,DewpointF,PressureIn,WindDirection,WindDirectionDegrees,WindSpeedMPH,WindSpeedGustMPH,Humidity,HourlyPrecipIn,Conditions,Clouds,dailyrainin,SoftwareType,DateUTC
2013-06-08 00:02:00,54.0,51.1,29.79,SSE,153,3.0,6.0,90,0.00,,,0.01,meteohub,2013-06-08 07:02:00,
2013-06-08 00:07:00,54.0,51.1,29.78,South,170,7.0,7.0,90,0.00,,,0.00,meteohub,2013-06-08 07:07:00,
2013-06-08 00:12:00,54.1,50.9,29.78,SE,140,0.0,8.0,89,0.00,,,0.00,meteohub,2013-06-08 07:12:00,
2013-06-08 00:17:00,54.3,51.1,29.78,SE,140,3.0,10.0,89,0.00,,,0.00,meteohub,2013-06-08 07:17:00,
2013-06-08 00:22:00,54.7,51.3,29.78,SSE,150,4.0,10.0,88,0.00,,,0.00,meteohub,2013-06-08 07:22:00,
2013-06-08 00:27:00,54.9,51.1,29.78,SE,128,8.0,11.0,87,0.00,,,0.00,meteohub,2013-06-08 07:27:00,
2013-06-08 00:32:00,54.9,50.7,29.78,South,171,7.0,12.0,86,0.00,,,0.00,meteohub,2013-06-08 07:32:00,
2013-06-08 00:37:00,55.0,50.9,29.78,SE,127,8.0,12.0,86,0.00,,,0.00,meteohub,2013-06-08 07:37:00,
2013-06-08 00:42:00,55.0,50.5,29.78,SSW,204,5.0,12.0,85,0.00,,,0.00,meteohub,2013-06-08 07:42:00,
2013-06-08 00:47:00,55.0,50.5,29.77,South,187,8.0,12.0,85,0.00,,,0.00,meteohub,2013-06-08 07:47:00,
2013-06-08 00:52:00,54.9,50.7,29.77,South,184,7.0,13.0,86,0.00,,,0.00,meteohub,2013-06-08 07:52:00,
2013-06-08 00:57:00,54.9,50.7,29.77,SE,145,4.0,14.0,86,0.00,,,0.00,meteohub,2013-06-08 07:57:00,
2013-06-08 01:02:00,54.9,50.7,29.77,South,169,5.0,14.0,86,0.00,,,0.00,meteohub,2013-06-08 08:02:00,
2013-06-08 01:07:00,54.9,50.7,29.77,South,191,4.0,14.0,86,0.00,,,0.00,meteohub,2013-06-08 08:07:00,
2013-06-08 01:12:00,54.7,50.9,29.78,South,175,4.0,11.0,87,0.00,,,0.00,meteohub,2013-06-08 08:12:00,
2013-06-08 01:17:00,54.7,50.9,29.78,SSE,154,3.0,11.0,87,0.00,,,0.00,meteohub,2013-06-08 08:17:00,
2013-06-08 01:22:00,54.3,50.5,29.78,SSW,213,0.0,11.0,87,0.00,,,0.00,meteohub,2013-06-08 08:22:00,
2013-06-08 01:27:00,54.1,50.7,29.78,SSW,192,6.0,9.0,88,0.00,,,0.00,meteohub,2013-06-08 08:27:00,
2013-06-08 01:32:00,54.1,50.9,29.78,SE,142,5.0,9.0,89,0.00,,,0.00,meteohub,2013-06-08 08:32:00,
2013-06-08 01:37:00,54.0,50.7,29.78,South,187,6.0,10.0,89,0.00,,,0.00,meteohub,2013-06-08 08:37:00,
2013-06-08 01:42:00,53.8,50.9,29.78,SSE,158,3.0,10.0,90,0.00,,,0.00,meteohub,2013-06-08 08:42:00,
2013-06-08 01:47:00,53.8,50.9,29.77,SSE,162,8.0,10.0,90,0.00,,,0.00,meteohub,2013-06-08 08:47:00,
2013-06-08 01:52:00,53.8,51.3,29.77,SSE,167,6.0,10.0,91,0.00,,,0.00,meteohub,2013-06-08 08:52:00,
2013-06-08 01:58:00,53.8,51.3,29.77,SSE,159,6.0,9.0,91,0.00,,,0.00,meteohub,2013-06-08 08:58:00,
2013-06-08 02:03:00,53.8,51.3,29.77,SSE,164,7.0,9.0,91,0.00,,,0.00,meteohub,2013-06-08 09:03:00,
2013-06-08 02:08:00,53.6,51.1,29.77,SSE,158,5.0,11.0,91,0.00,,,0.00,meteohub,2013-06-08 09:08:00,
2013-06-08 02:13:00,53.6,51.1,29.77,SSE,166,7.0,11.0,91,0.00,,,0.00,meteohub,2013-06-08 09:13:00,
2013-06-08 02:18:00,53.6,51.3,29.77,SSE,166,3.0,10.0,92,0.00,,,0.00,meteohub,2013-06-08 09:18:00,
2013-06-08 02:23:00,53.4,51.1,29.77,SSE,167,3.0,11.0,92,0.00,,,0.00,meteohub,2013-06-08 09:23:00,
2013-06-08 02:28:00,53.4,51.1,29.77,SSE,167,6.0,11.0,92,0.00,,,0.00,meteohub,2013-06-08 09:28:00,
2013-06-08 02:33:00,53.4,51.1,29.77,South,191,4.0,9.0,92,0.00,,,0.00,meteohub,2013-06-08 09:33:00,
2013-06-08 02:38:00,53.2,50.9,29.77,South,175,5.0,8.0,92,0.00,,,0.00,meteohub,2013-06-08 09:38:00,
2013-06-08 02:43:00,53.2,51.3,29.76,SSE,157,3.0,11.0,93,0.00,,,0.00,meteohub,2013-06-08 09:43:00,
2013-06-08 02:48:00,53.2,51.3,29.77,SE,143,6.0,11.0,93,0.00,,,0.00,meteohub,2013-06-08 09:48:00,
2013-06-08 02:53:00,53.2,51.3,29.77,SSW,193,6.0,12.0,93,0.00,,,0.00,meteohub,2013-06-08 09:53:00,
2013-06-08 02:58:00,53.2,51.3,29.77,SW,223,3.0,12.0,93,0.00,,,0.00,meteohub,2013-06-08 09:58:00,
2013-06-08 03:03:00,53.2,51.3,29.77,South,169,3.0,11.0,93,0.00,,,0.00,meteohub,2013-06-08 10:03:00,
2013-06-08 03:08:00,53.2,51.3,29.77,SSE,157,4.0,10.0,93,0.00,,,0.00,meteohub,2013-06-08 10:08:00,
2013-06-08 03:13:00,53.2,51.3,29.78,South,179,2.0,8.0,93,0.00,,,0.00,meteohub,2013-06-08 10:13:00,
2013-06-08 03:18:00,53.2,51.3,29.78,SSE,155,4.0,8.0,93,0.00,,,0.00,meteohub,2013-06-08 10:18:00,
2013-06-08 03:23:00,53.1,51.1,29.78,ESE,105,3.0,7.0,93,0.00,,,0.00,meteohub,2013-06-08 10:23:00,
2013-06-08 03:28:00,53.1,51.1,29.78,SE,140,2.0,7.0,93,0.00,,,0.00,meteohub,2013-06-08 10:28:00,
2013-06-08 03:33:00,53.1,51.1,29.78,SSW,202,4.0,7.0,93,0.00,,,0.00,meteohub,2013-06-08 10:33:00,
2013-06-08 03:38:00,53.1,51.1,29.78,SSE,159,0.0,7.0,93,0.00,,,0.00,meteohub,2013-06-08 10:38:00,
2013-06-08 03:43:00,53.1,51.4,29.78,SSW,205,1.0,9.0,94,0.00,,,0.00,meteohub,2013-06-08 10:43:00,
2013-06-08 03:48:00,53.1,51.4,29.78,SW,217,5.0,9.0,94,0.00,,,0.00,meteohub,2013-06-08 10:48:00,
2013-06-08 03:53:00,52.9,51.3,29.77,ESE,115,2.0,9.0,94,0.00,,,0.00,meteohub,2013-06-08 10:53:00,
2013-06-08 03:58:00,52.9,51.3,29.78,SSE,155,3.0,9.0,94,0.00,,,0.00,meteohub,2013-06-08 10:58:00,
2013-06-08 04:03:00,52.9,51.3,29.78,SSW,194,4.0,9.0,94,0.00,,,0.00,meteohub,2013-06-08 11:03:00,
2013-06-08 04:08:00,52.9,51.3,29.78,SW,220,3.0,9.0,94,0.00,,,0.00,meteohub,2013-06-08 11:08:00,
2013-06-08 04:13:00,52.7,51.1,29.77,South,172,6.0,9.0,94,0.00,,,0.00,meteohub,2013-06-08 11:13:00,
2013-06-08 04:18:00,52.7,51.1,29.77,SE,136,2.0,11.0,94,0.00,,,0.00,meteohub,2013-06-08 11:18:00,
2013-06-08 04:23:00,52.7,51.1,29.77,South,191,3.0,11.0,94,0.00,,,0.00,meteohub,2013-06-08 11:23:00,
2013-06-08 04:28:00,52.5,50.9,29.77,South,184,0.0,11.0,94,0.00,,,0.00,meteohub,2013-06-08 11:28:00,
2013-06-08 04:33:00,52.5,51.1,29.77,South,188,5.0,10.0,95,0.00,,,0.00,meteohub,2013-06-08 11:33:00,
2013-06-08 04:38:00,52.5,51.1,29.77,ENE,60,2.0,10.0,95,0.00,,,0.00,meteohub,2013-06-08 11:38:00,
2013-06-08 04:43:00,52.3,50.9,29.77,SSE,154,6.0,9.0,95,0.00,,,0.00,meteohub,2013-06-08 11:43:00,
2013-06-08 04:48:00,52.3,50.9,29.77,SSE,157,3.0,8.0,95,0.00,,,0.00,meteohub,2013-06-08 11:48:00,
2013-06-08 04:53:00,52.2,50.7,29.77,SSE,153,3.0,8.0,95,0.00,,,0.00,meteohub,2013-06-08 11:53:00,
2013-06-08 04:58:00,52.2,50.7,29.77,SSW,192,7.0,9.0,95,0.00,,,0.00,meteohub,2013-06-08 11:58:00,
2013-06-08 05:03:00,52.2,50.7,29.77,SSE,159,7.0,9.0,95,0.00,,,0.00,meteohub,2013-06-08 12:03:00,
2013-06-08 05:08:00,52.0,50.5,29.77,ESE,119,2.0,9.0,95,0.00,,,0.00,meteohub,2013-06-08 12:08:00,
2013-06-08 05:13:00,52.0,50.5,29.77,South,183,0.0,9.0,95,0.00,,,0.00,meteohub,2013-06-08 12:13:00,
2013-06-08 05:18:00,52.0,50.5,29.77,ESE,112,4.0,9.0,95,0.00,,,0.00,meteohub,2013-06-08 12:18:00,
2013-06-08 05:23:00,51.8,50.4,29.77,SSE,160,6.0,8.0,95,0.00,,,0.00,meteohub,2013-06-08 12:23:00,
2013-06-08 05:28:00,51.6,50.2,29.77,ESE,121,3.0,8.0,95,0.00,,,0.00,meteohub,2013-06-08 12:28:00,
2013-06-08 05:33:00,51.6,50.5,29.77,SSW,196,1.0,8.0,96,0.00,,,0.00,meteohub,2013-06-08 12:33:00,
2013-06-08 05:38:00,51.4,50.4,29.77,SW,217,0.0,8.0,96,0.00,,,0.00,meteohub,2013-06-08 12:38:00,
2013-06-08 05:43:00,51.4,50.4,29.77,North,0,0.0,7.0,96,0.00,,,0.00,meteohub,2013-06-08 12:43:00,
2013-06-08 05:48:00,51.4,50.4,29.77,East,92,0.0,5.0,96,0.00,,,0.00,meteohub,2013-06-08 12:48:00,
2013-06-08 05:54:00,51.3,50.2,29.77,East,98,1.0,5.0,96,0.00,,,0.00,meteohub,2013-06-08 12:54:00,
2013-06-08 05:59:00,51.3,50.2,29.77,East,98,1.0,5.0,96,0.00,,,0.00,meteohub,2013-06-08 12:59:00,
2013-06-08 06:04:00,51.3,50.2,29.78,ESE,105,0.0,3.0,96,0.00,,,0.00,meteohub,2013-06-08 13:04:00,
2013-06-08 06:09:00,51.3,50.2,29.77,ESE,108,0.0,2.0,96,0.00,,,0.00,meteohub,2013-06-08 13:09:00,
2013-06-08 06:14:00,51.3,50.2,29.78,NE,56,1.0,2.0,96,0.00,,,0.00,meteohub,2013-06-08 13:14:00,
2013-06-08 06:19:00,51.3,50.4,29.78,ENE,59,0.0,2.0,97,0.00,,,0.00,meteohub,2013-06-08 13:19:00,
2013-06-08 06:24:00,51.3,50.2,29.78,WNW,285,0.0,3.0,96,0.00,,,0.00,meteohub,2013-06-08 13:24:00,
2013-06-08 06:29:00,51.1,50.2,29.78,South,191,2.0,3.0,97,0.00,,,0.00,meteohub,2013-06-08 13:29:00,
2013-06-08 06:34:00,51.1,50.2,29.78,NW,314,2.0,2.0,97,0.00,,,0.00,meteohub,2013-06-08 13:34:00,
2013-06-08 06:39:00,51.3,50.4,29.78,NW,314,0.0,5.0,97,0.00,,,0.00,meteohub,2013-06-08 13:39:00,
2013-06-08 06:44:00,51.3,50.4,29.78,SSW,204,1.0,5.0,97,0.00,,,0.00,meteohub,2013-06-08 13:44:00,
2013-06-08 06:49:00,51.3,50.4,29.78,WNW,303,1.0,5.0,97,0.00,,,0.00,meteohub,2013-06-08 13:49:00,
2013-06-08 06:54:00,51.4,50.5,29.78,WNW,296,0.0,6.0,97,0.00,,,0.00,meteohub,2013-06-08 13:54:00,
2013-06-08 06:59:00,51.6,50.7,29.79,WNW,296,0.0,7.0,97,0.00,,,0.00,meteohub,2013-06-08 13:59:00,
2013-06-08 07:04:00,51.4,50.5,29.79,NE,35,0.0,7.0,97,0.00,,,0.00,meteohub,2013-06-08 14:04:00,
2013-06-08 07:09:00,51.4,50.5,29.79,SE,127,0.0,7.0,97,0.00,,,0.00,meteohub,2013-06-08 14:09:00,
2013-06-08 07:14:00,51.6,50.7,29.79,South,173,0.0,3.0,97,0.00,,,0.00,meteohub,2013-06-08 14:14:00,
2013-06-08 07:19:00,51.6,50.7,29.79,South,171,1.0,4.0,97,0.00,,,0.00,meteohub,2013-06-08 14:19:00,
2013-06-08 07:24:00,51.8,50.9,29.79,NE,39,0.0,4.0,97,0.00,,,0.00,meteohub,2013-06-08 14:24:00,
2013-06-08 07:29:00,52.0,51.1,29.79,NE,39,0.0,4.0,97,0.00,,,0.00,meteohub,2013-06-08 14:29:00,
2013-06-08 07:34:00,52.2,51.3,29.79,East,86,0.0,4.0,97,0.00,,,0.00,meteohub,2013-06-08 14:34:00,
2013-06-08 07:39:00,52.2,51.3,29.79,NW,317,0.0,1.0,97,0.00,,,0.00,meteohub,2013-06-08 14:39:00,
2013-06-08 07:44:00,52.2,51.3,29.79,NW,325,2.0,5.0,97,0.00,,,0.00,meteohub,2013-06-08 14:44:00,
2013-06-08 07:49:00,52.3,51.8,29.79,NNW,336,1.0,5.0,98,0.00,,,0.00,meteohub,2013-06-08 14:49:00,
2013-06-08 07:54:00,53.1,52.5,29.79,West,281,1.0,5.0,98,0.00,,,0.00,meteohub,2013-06-08 14:54:00,
2013-06-08 07:59:00,53.1,52.5,29.79,West,267,0.0,4.0,98,0.00,,,0.00,meteohub,2013-06-08 14:59:00,
2013-06-08 08:04:00,53.4,52.9,29.79,WNW,297,0.0,3.0,98,0.00,,,0.00,meteohub,2013-06-08 15:04:00,
2013-06-08 08:09:00,53.8,52.9,29.79,NW,317,0.0,3.0,97,0.00,,,0.00,meteohub,2013-06-08 15:09:00,
2013-06-08 08:14:00,53.8,52.9,29.79,NNW,332,0.0,2.0,97,0.00,,,0.00,meteohub,2013-06-08 15:14:00,
2013-06-08 08:19:00,54.3,53.4,29.79,NNW,327,2.0,6.0,97,0.00,,,0.00,meteohub,2013-06-08 15:19:00,
2013-06-08 08:24:00,54.7,53.6,29.79,NW,306,3.0,6.0,96,0.00,,,0.00,meteohub,2013-06-08 15:24:00,
2013-06-08 08:29:00,54.9,53.8,29.79,WNW,296,3.0,6.0,96,0.00,,,0.00,meteohub,2013-06-08 15:29:00,
2013-06-08 08:34:00,54.3,52.9,29.79,North,355,1.0,6.0,95,0.00,,,0.00,meteohub,2013-06-08 15:34:00,
2013-06-08 08:39:00,54.5,53.1,29.79,NW,315,4.0,6.0,95,0.00,,,0.00,meteohub,2013-06-08 15:39:00,
2013-06-08 08:44:00,55.6,54.1,29.79,NW,307,0.0,5.0,95,0.00,,,0.00,meteohub,2013-06-08 15:44:00,
2013-06-08 08:49:00,55.9,54.3,29.79,SSW,212,0.0,6.0,94,0.00,,,0.00,meteohub,2013-06-08 15:49:00,
2013-06-08 08:54:00,56.5,54.5,29.80,WSW,238,1.0,6.0,93,0.00,,,0.00,meteohub,2013-06-08 15:54:00,
2013-06-08 08:59:00,56.5,54.0,29.79,NW,313,4.0,6.0,91,0.00,,,0.00,meteohub,2013-06-08 15:59:00,
2013-06-08 09:04:00,56.5,54.0,29.80,NNW,330,1.0,6.0,91,0.00,,,0.00,meteohub,2013-06-08 16:04:00,
2013-06-08 09:09:00,57.0,54.1,29.79,WSW,250,1.0,4.0,90,0.00,,,0.00,meteohub,2013-06-08 16:09:00,
2013-06-08 09:14:00,56.8,53.6,29.79,West,264,6.0,6.0,89,0.00,,,0.00,meteohub,2013-06-08 16:14:00,
2013-06-08 09:19:00,56.1,52.9,29.79,WNW,290,0.0,6.0,89,0.00,,,0.00,meteohub,2013-06-08 16:19:00,
2013-06-08 09:24:00,56.5,53.2,29.79,West,279,2.0,7.0,89,0.00,,,0.00,meteohub,2013-06-08 16:24:00,
2013-06-08 09:29:00,56.3,53.1,29.80,NNW,348,0.0,7.0,89,0.00,,,0.00,meteohub,2013-06-08 16:29:00,
2013-06-08 09:34:00,56.7,53.4,29.80,NW,311,2.0,7.0,89,0.00,,,0.00,meteohub,2013-06-08 16:34:00,
2013-06-08 09:39:00,57.0,53.4,29.79,WNW,296,3.0,6.0,88,0.00,,,0.00,meteohub,2013-06-08 16:39:00,
2013-06-08 09:44:00,57.7,54.5,29.79,WSW,237,1.0,6.0,89,0.00,,,0.00,meteohub,2013-06-08 16:44:00,
2013-06-08 09:49:00,57.7,53.6,29.79,West,281,5.0,6.0,86,0.00,,,0.00,meteohub,2013-06-08 16:49:00,
2013-06-08 09:54:00,58.3,54.1,29.79,NW,312,4.0,5.0,86,0.00,,,0.00,meteohub,2013-06-08 16:54:00,
2013-06-08 09:59:00,58.3,54.1,29.79,WNW,287,2.0,8.0,86,0.00,,,0.00,meteohub,2013-06-08 16:59:00,
2013-06-08 10:04:00,59.2,54.7,29.79,WNW,302,4.0,8.0,85,0.00,,,0.00,meteohub,2013-06-08 17:04:00,
2013-06-08 10:09:00,59.4,54.1,29.79,NNW,338,5.0,7.0,83,0.00,,,0.00,meteohub,2013-06-08 17:09:00,
2013-06-08 10:14:00,59.2,54.7,29.79,SSE,159,3.0,7.0,85,0.00,,,0.00,meteohub,2013-06-08 17:14:00,
2013-06-08 10:19:00,59.2,54.7,29.79,NW,309,8.0,8.0,85,0.00,,,0.00,meteohub,2013-06-08 17:19:00,
2013-06-08 10:24:00,58.8,54.0,29.79,WNW,282,2.0,7.0,84,0.00,,,0.00,meteohub,2013-06-08 17:24:00,
2013-06-08 10:29:00,58.3,54.5,29.79,South,169,4.0,8.0,87,0.00,,,0.00,meteohub,2013-06-08 17:29:00,
2013-06-08 10:34:00,58.8,54.3,29.79,East,82,3.0,8.0,85,0.00,,,0.00,meteohub,2013-06-08 17:34:00,
2013-06-08 10:40:00,58.3,54.1,29.79,North,0,0.0,8.0,86,0.00,,,0.00,meteohub,2013-06-08 17:40:00,
2013-06-08 10:45:00,58.8,54.7,29.79,NW,312,1.0,8.0,86,0.00,,,0.00,meteohub,2013-06-08 17:45:00,
2013-06-08 10:50:00,58.6,54.5,29.79,WNW,295,0.0,8.0,86,0.00,,,0.00,meteohub,2013-06-08 17:50:00,
2013-06-08 10:55:00,58.3,54.1,29.79,NNW,334,3.0,8.0,86,0.00,,,0.00,meteohub,2013-06-08 17:55:00,
2013-06-08 11:00:00,58.6,54.5,29.79,North,355,1.0,9.0,86,0.00,,,0.00,meteohub,2013-06-08 18:00:00,
2013-06-08 11:05:00,59.4,54.9,29.79,NNW,342,2.0,9.0,85,0.00,,,0.00,meteohub,2013-06-08 18:05:00,
2013-06-08 11:10:00,58.6,54.1,29.79,SSE,148,5.0,9.0,85,0.00,,,0.00,meteohub,2013-06-08 18:10:00,
2013-06-08 11:15:00,58.8,54.3,29.80,SSW,211,4.0,10.0,85,0.00,,,0.00,meteohub,2013-06-08 18:15:00,
2013-06-08 11:20:00,58.6,54.5,29.80,NNE,16,3.0,10.0,86,0.00,,,0.00,meteohub,2013-06-08 18:20:00,
2013-06-08 11:25:00,59.0,54.5,29.80,South,180,1.0,10.0,85,0.00,,,0.00,meteohub,2013-06-08 18:25:00,
2013-06-08 11:30:00,59.2,55.0,29.79,SSE,167,3.0,8.0,86,0.00,,,0.00,meteohub,2013-06-08 18:30:00,
2013-06-08 11:35:00,59.5,55.0,29.79,WNW,298,6.0,8.0,85,0.00,,,0.00,meteohub,2013-06-08 18:35:00,
2013-06-08 11:40:00,59.4,54.5,29.80,SW,223,3.0,9.0,84,0.00,,,0.00,meteohub,2013-06-08 18:40:00,
2013-06-08 11:45:00,59.2,54.7,29.80,WNW,295,2.0,11.0,85,0.00,,,0.00,meteohub,2013-06-08 18:45:00,
2013-06-08 11:50:00,59.5,55.0,29.80,South,182,4.0,11.0,85,0.00,,,0.00,meteohub,2013-06-08 18:50:00,
2013-06-08 11:55:00,59.5,54.7,29.79,West,275,3.0,11.0,84,0.00,,,0.00,meteohub,2013-06-08 18:55:00,
2013-06-08 12:00:00,59.7,55.2,29.80,SW,218,7.0,8.0,85,0.00,,,0.00,meteohub,2013-06-08 19:00:00,
2013-06-08 12:05:00,59.0,54.5,29.80,SW,231,3.0,10.0,85,0.00,,,0.00,meteohub,2013-06-08 19:05:00,
2013-06-08 12:10:00,58.8,54.7,29.80,ESE,121,3.0,10.0,86,0.00,,,0.00,meteohub,2013-06-08 19:10:00,
2013-06-08 12:15:00,58.8,54.3,29.80,South,180,3.0,10.0,85,0.00,,,0.00,meteohub,2013-06-08 19:15:00,
2013-06-08 12:20:00,58.6,54.5,29.80,WNW,300,5.0,13.0,86,0.00,,,0.00,meteohub,2013-06-08 19:20:00,
2013-06-08 12:25:00,59.2,54.7,29.80,NNE,28,3.0,13.0,85,0.00,,,0.00,meteohub,2013-06-08 19:25:00,
2013-06-08 12:30:00,59.2,54.7,29.80,WNW,291,3.0,13.0,85,0.00,,,0.00,meteohub,2013-06-08 19:30:00,
2013-06-08 12:35:00,59.5,55.4,29.80,WNW,300,7.0,11.0,86,0.00,,,0.00,meteohub,2013-06-08 19:35:00,
2013-06-08 12:40:00,59.4,54.9,29.80,SW,219,7.0,11.0,85,0.00,,,0.00,meteohub,2013-06-08 19:40:00,
2013-06-08 12:45:00,59.2,54.7,29.80,NE,40,2.0,10.0,85,0.00,,,0.00,meteohub,2013-06-08 19:45:00,
2013-06-08 12:50:00,59.5,55.0,29.80,SW,232,4.0,10.0,85,0.00,,,0.00,meteohub,2013-06-08 19:50:00,
2013-06-08 12:55:00,59.0,54.5,29.80,SSE,156,0.0,11.0,85,0.00,,,0.00,meteohub,2013-06-08 19:55:00,
2013-06-08 13:00:00,59.5,55.0,29.80,South,190,3.0,11.0,85,0.00,,,0.00,meteohub,2013-06-08 20:00:00,
2013-06-08 13:05:00,59.4,55.2,29.81,NW,306,1.0,11.0,86,0.00,,,0.00,meteohub,2013-06-08 20:05:00,
2013-06-08 13:10:00,59.9,55.0,29.80,SW,215,6.0,11.0,84,0.00,,,0.00,meteohub,2013-06-08 20:10:00,
2013-06-08 13:15:00,59.5,55.4,29.80,ENE,76,4.0,11.0,86,0.00,,,0.00,meteohub,2013-06-08 20:15:00,
2013-06-08 13:20:00,58.6,54.1,29.80,West,260,4.0,11.0,85,0.00,,,0.00,meteohub,2013-06-08 20:20:00,
2013-06-08 13:25:00,58.8,54.7,29.80,North,5,4.0,11.0,86,0.00,,,0.00,meteohub,2013-06-08 20:25:00,
2013-06-08 13:30:00,58.8,54.7,29.80,North,355,2.0,11.0,86,0.00,,,0.00,meteohub,2013-06-08 20:30:00,
2013-06-08 13:35:00,58.5,54.3,29.80,SSE,159,3.0,11.0,86,0.00,,,0.00,meteohub,2013-06-08 20:35:00,
2013-06-08 13:40:00,58.8,54.7,29.80,West,277,3.0,10.0,86,0.00,,,0.00,meteohub,2013-06-08 20:40:00,
2013-06-08 13:45:00,59.0,54.9,29.80,SW,232,3.0,12.0,86,0.00,,,0.00,meteohub,2013-06-08 20:45:00,
2013-06-08 13:50:00,59.7,55.2,29.80,NW,325,12.0,12.0,85,0.00,,,0.00,meteohub,2013-06-08 20:50:00,
2013-06-08 13:55:00,59.4,54.9,29.80,WNW,290,6.0,12.0,85,0.00,,,0.00,meteohub,2013-06-08 20:55:00,
2013-06-08 14:00:00,59.0,54.5,29.80,WSW,250,3.0,12.0,85,0.00,,,0.00,meteohub,2013-06-08 21:00:00,
2013-06-08 14:05:00,58.8,54.3,29.80,SSE,157,3.0,12.0,85,0.00,,,0.00,meteohub,2013-06-08 21:05:00,
2013-06-08 14:10:00,58.8,54.7,29.80,West,272,5.0,12.0,86,0.00,,,0.00,meteohub,2013-06-08 21:10:00,
2013-06-08 14:15:00,58.8,54.7,29.80,NNW,343,2.0,12.0,86,0.00,,,0.00,meteohub,2013-06-08 21:15:00,
2013-06-08 14:20:00,58.5,54.3,29.79,NNE,15,1.0,12.0,86,0.00,,,0.00,meteohub,2013-06-08 21:20:00,
2013-06-08 14:25:00,58.6,54.5,29.80,SSW,213,5.0,10.0,86,0.00,,,0.00,meteohub,2013-06-08 21:25:00,
2013-06-08 14:31:00,58.5,54.3,29.80,WSW,243,4.0,13.0,86,0.00,,,0.00,meteohub,2013-06-08 21:31:00,
2013-06-08 14:36:00,58.5,54.3,29.80,NW,314,1.0,13.0,86,0.00,,,0.00,meteohub,2013-06-08 21:36:00,
2013-06-08 14:41:00,58.5,54.7,29.79,SW,214,5.0,13.0,87,0.00,,,0.00,meteohub,2013-06-08 21:41:00,
2013-06-08 14:46:00,58.5,54.3,29.79,South,186,6.0,13.0,86,0.00,,,0.00,meteohub,2013-06-08 21:46:00,
2013-06-08 14:51:00,58.3,54.1,29.79,North,355,3.0,16.0,86,0.00,,,0.00,meteohub,2013-06-08 21:51:00,
2013-06-08 14:56:00,57.9,54.1,29.79,SW,224,2.0,16.0,87,0.00,,,0.00,meteohub,2013-06-08 21:56:00,
2013-06-08 15:01:00,57.9,54.1,29.79,NNW,333,9.0,16.0,87,0.00,,,0.00,meteohub,2013-06-08 22:01:00,
2013-06-08 15:06:00,57.7,54.0,29.79,West,277,5.0,16.0,87,0.00,,,0.00,meteohub,2013-06-08 22:06:00,
2013-06-08 15:12:00,57.6,54.0,29.79,WSW,249,4.0,16.0,88,0.00,,,0.00,meteohub,2013-06-08 22:12:00,
2013-06-08 15:17:00,57.6,54.0,29.79,NNW,330,9.0,16.0,88,0.00,,,0.00,meteohub,2013-06-08 22:17:00,
2013-06-08 15:22:00,57.4,53.8,29.79,North,5,5.0,16.0,88,0.00,,,0.00,meteohub,2013-06-08 22:22:00,
2013-06-08 15:27:00,57.2,54.0,29.79,WSW,253,7.0,15.0,89,0.00,,,0.00,meteohub,2013-06-08 22:27:00,
2013-06-08 15:32:00,57.4,54.1,29.79,SE,143,5.0,15.0,89,0.00,,,0.00,meteohub,2013-06-08 22:32:00,
2013-06-08 15:37:00,57.2,54.0,29.79,NW,325,3.0,15.0,89,0.00,,,0.00,meteohub,2013-06-08 22:37:00,
2013-06-08 15:42:00,57.0,53.8,29.79,South,187,2.0,15.0,89,0.00,,,0.00,meteohub,2013-06-08 22:42:00,
2013-06-08 15:47:00,57.0,53.8,29.79,NNW,328,4.0,12.0,89,0.00,,,0.00,meteohub,2013-06-08 22:47:00,
2013-06-08 15:52:00,56.8,53.6,29.79,West,261,2.0,18.0,89,0.00,,,0.00,meteohub,2013-06-08 22:52:00,
2013-06-08 15:57:00,56.8,54.0,29.79,NE,38,2.0,18.0,90,0.00,,,0.00,meteohub,2013-06-08 22:57:00,
2013-06-08 16:02:00,57.0,53.8,29.79,WSW,248,2.0,18.0,89,0.00,,,0.00,meteohub,2013-06-08 23:02:00,
2013-06-08 16:07:00,57.0,53.8,29.79,WSW,257,3.0,18.0,89,0.00,,,0.00,meteohub,2013-06-08 23:07:00,
2013-06-08 16:12:00,56.8,53.6,29.79,West,269,5.0,18.0,89,0.00,,,0.00,meteohub,2013-06-08 23:12:00,
2013-06-08 16:17:00,56.7,53.8,29.79,WSW,253,1.0,18.0,90,0.00,,,0.00,meteohub,2013-06-08 23:17:00,
2013-06-08 16:22:00,56.7,53.8,29.79,NW,311,9.0,16.0,90,0.00,,,0.00,meteohub,2013-06-08 23:22:00,
2013-06-08 16:27:00,56.7,54.1,29.79,WNW,297,4.0,16.0,91,0.00,,,0.00,meteohub,2013-06-08 23:27:00,
2013-06-08 16:32:00,56.5,54.0,29.79,West,269,5.0,16.0,91,0.00,,,0.00,meteohub,2013-06-08 23:32:00,
2013-06-08 16:37:00,56.3,53.8,29.79,NNW,329,5.0,15.0,91,0.00,,,0.00,meteohub,2013-06-08 23:37:00,
2013-06-08 16:42:00,56.3,53.8,29.79,WNW,282,6.0,15.0,91,0.00,,,0.00,meteohub,2013-06-08 23:42:00,
2013-06-08 16:47:00,56.1,53.6,29.79,South,178,4.0,12.0,91,0.00,,,0.00,meteohub,2013-06-08 23:47:00,
2013-06-08 16:52:00,56.3,54.0,29.79,SE,137,2.0,11.0,92,0.00,,,0.00,meteohub,2013-06-08 23:52:00,
2013-06-08 16:57:00,56.3,53.8,29.79,SSW,193,5.0,12.0,91,0.00,,,0.00,meteohub,2013-06-08 23:57:00,
2013-06-08 17:02:00,56.5,54.0,29.79,North,9,2.0,13.0,91,0.00,,,0.00,meteohub,2013-06-09 00:02:00,
2013-06-08 17:07:00,56.5,54.0,29.79,SW,232,2.0,13.0,91,0.00,,,0.00,meteohub,2013-06-09 00:07:00,
2013-06-08 17:12:00,56.3,53.8,29.79,NW,309,6.0,19.0,91,0.00,,,0.00,meteohub,2013-06-09 00:12:00,
2013-06-08 17:17:00,56.1,53.8,29.79,SSE,148,3.0,19.0,92,0.00,,,0.00,meteohub,2013-06-09 00:17:00,
2013-06-08 17:22:00,55.9,53.6,29.79,NNW,345,4.0,15.0,92,0.00,,,0.00,meteohub,2013-06-09 00:22:00,
2013-06-08 17:27:00,55.9,53.6,29.78,North,355,3.0,15.0,92,0.00,,,0.00,meteohub,2013-06-09 00:27:00,
2013-06-08 17:32:00,55.9,53.6,29.79,NNW,337,5.0,15.0,92,0.00,,,0.00,meteohub,2013-06-09 00:32:00,
2013-06-08 17:37:00,56.1,53.8,29.79,SSW,195,6.0,15.0,92,0.00,,,0.00,meteohub,2013-06-09 00:37:00,
2013-06-08 17:42:00,55.9,53.6,29.78,SSW,192,8.0,13.0,92,0.00,,,0.00,meteohub,2013-06-09 00:42:00,
2013-06-08 17:47:00,56.1,53.8,29.78,SE,143,3.0,13.0,92,0.00,,,0.00,meteohub,2013-06-09 00:47:00,
2013-06-08 17:52:00,56.1,53.8,29.78,NNW,344,3.0,13.0,92,0.00,,,0.00,meteohub,2013-06-09 00:52:00,
2013-06-08 17:57:00,56.1,53.8,29.78,SW,217,6.0,17.0,92,0.00,,,0.00,meteohub,2013-06-09 00:57:00,
2013-06-08 18:02:00,56.1,53.8,29.78,ESE,119,5.0,17.0,92,0.00,,,0.00,meteohub,2013-06-09 01:02:00,
2013-06-08 18:07:00,56.1,53.8,29.78,East,84,1.0,17.0,92,0.00,,,0.00,meteohub,2013-06-09 01:07:00,
2013-06-08 18:12:00,56.1,53.8,29.79,SSW,203,4.0,13.0,92,0.00,,,0.00,meteohub,2013-06-09 01:12:00,
2013-06-08 18:17:00,56.1,54.1,29.79,NNW,336,4.0,13.0,93,0.00,,,0.00,meteohub,2013-06-09 01:17:00,
2013-06-08 18:22:00,56.1,54.1,29.79,South,180,6.0,13.0,93,0.00,,,0.00,meteohub,2013-06-09 01:22:00,
2013-06-08 18:27:00,56.1,54.1,29.79,South,186,3.0,13.0,93,0.00,,,0.00,meteohub,2013-06-09 01:27:00,
2013-06-08 18:32:00,55.9,54.0,29.79,ENE,66,0.0,13.0,93,0.00,,,0.00,meteohub,2013-06-09 01:32:00,
2013-06-08 18:37:00,56.1,54.1,29.78,SE,132,2.0,11.0,93,0.00,,,0.00,meteohub,2013-06-09 01:37:00,
2013-06-08 18:42:00,56.1,54.1,29.79,North,355,3.0,10.0,93,0.00,,,0.00,meteohub,2013-06-09 01:42:00,
2013-06-08 18:47:00,56.1,54.1,29.78,SE,128,5.0,15.0,93,0.00,,,0.00,meteohub,2013-06-09 01:47:00,
2013-06-08 18:52:00,56.3,54.3,29.78,SSE,163,1.0,15.0,93,0.00,,,0.00,meteohub,2013-06-09 01:52:00,
2013-06-08 18:57:00,56.3,54.3,29.79,SW,215,2.0,15.0,93,0.00,,,0.00,meteohub,2013-06-09 01:57:00,
2013-06-08 19:02:00,56.3,54.3,29.79,SSW,207,2.0,9.0,93,0.00,,,0.00,meteohub,2013-06-09 02:02:00,
2013-06-08 19:07:00,56.3,54.3,29.79,WNW,291,4.0,10.0,93,0.00,,,0.00,meteohub,2013-06-09 02:07:00,
2013-06-08 19:12:00,56.5,54.5,29.79,WSW,242,4.0,10.0,93,0.00,,,0.00,meteohub,2013-06-09 02:12:00,
2013-06-08 19:17:00,56.5,54.5,29.79,NNW,333,3.0,13.0,93,0.00,,,0.00,meteohub,2013-06-09 02:17:00,
2013-06-08 19:23:00,56.7,54.7,29.79,NNW,348,7.0,13.0,93,0.00,,,0.00,meteohub,2013-06-09 02:23:00,
2013-06-08 19:27:00,56.8,54.9,29.79,SE,136,1.0,13.0,93,0.00,,,0.00,meteohub,2013-06-09 02:27:00,
2013-06-08 19:33:00,57.0,55.0,29.79,NNE,22,0.0,12.0,93,0.00,,,0.00,meteohub,2013-06-09 02:33:00,
2013-06-08 19:38:00,57.0,54.7,29.79,WNW,300,4.0,8.0,92,0.00,,,0.00,meteohub,2013-06-09 02:38:00,
2013-06-08 19:43:00,57.2,54.9,29.79,WNW,291,0.0,7.0,92,0.00,,,0.00,meteohub,2013-06-09 02:43:00,
2013-06-08 19:48:00,57.4,55.0,29.80,WNW,293,2.0,7.0,92,0.00,,,0.00,meteohub,2013-06-09 02:48:00,
2013-06-08 19:53:00,57.6,55.2,29.80,NNW,327,1.0,8.0,92,0.00,,,0.00,meteohub,2013-06-09 02:53:00,
2013-06-08 19:58:00,57.7,55.4,29.79,West,280,2.0,8.0,92,0.00,,,0.00,meteohub,2013-06-09 02:58:00,
2013-06-08 20:03:00,57.7,55.2,29.80,WNW,286,0.0,8.0,91,0.00,,,0.00,meteohub,2013-06-09 03:03:00,
2013-06-08 20:08:00,57.9,55.2,29.79,WNW,299,2.0,5.0,91,0.00,,,0.00,meteohub,2013-06-09 03:08:00,
2013-06-08 20:13:00,57.9,55.2,29.79,WNW,297,1.0,5.0,91,0.00,,,0.00,meteohub,2013-06-09 03:13:00,
2013-06-08 20:18:00,57.9,55.2,29.80,NE,37,2.0,5.0,91,0.00,,,0.00,meteohub,2013-06-09 03:18:00,
2013-06-08 20:23:00,57.9,55.2,29.80,SW,226,0.0,5.0,91,0.00,,,0.00,meteohub,2013-06-09 03:23:00,
2013-06-08 20:28:00,57.7,55.2,29.79,SW,227,1.0,4.0,91,0.00,,,0.00,meteohub,2013-06-09 03:28:00,
2013-06-08 20:33:00,57.6,55.0,29.79,West,263,0.0,5.0,91,0.00,,,0.00,meteohub,2013-06-09 03:33:00,
2013-06-08 20:38:00,57.4,54.9,29.80,SW,228,1.0,5.0,91,0.00,,,0.00,meteohub,2013-06-09 03:38:00,
2013-06-08 20:43:00,57.4,54.9,29.80,WNW,300,1.0,5.0,91,0.00,,,0.00,meteohub,2013-06-09 03:43:00,
2013-06-08 20:48:00,57.4,54.9,29.80,West,264,0.0,4.0,91,0.00,,,0.00,meteohub,2013-06-09 03:48:00,
2013-06-08 20:53:00,57.0,54.5,29.80,WSW,242,0.0,4.0,91,0.00,,,0.00,meteohub,2013-06-09 03:53:00,
2013-06-08 20:58:00,56.8,54.5,29.80,SW,215,4.0,6.0,92,0.00,,,0.00,meteohub,2013-06-09 03:58:00,
2013-06-08 21:01:00,56.8,54.5,29.80,West,269,3.0,8.0,92,0.00,,,0.00,meteohub,2013-06-09 04:01:00,
2013-06-08 21:02:00,56.8,54.5,29.80,WNW,294,3.0,8.0,92,0.00,,,0.00,meteohub,2013-06-09 04:02:00,
2013-06-08 21:07:00,56.7,54.3,29.81,SSW,209,2.0,8.0,92,0.00,,,0.00,meteohub,2013-06-09 04:07:00,
2013-06-08 21:12:00,56.7,54.3,29.81,SW,221,4.0,8.0,92,0.00,,,0.00,meteohub,2013-06-09 04:12:00,
2013-06-08 21:17:00,56.7,54.3,29.81,WNW,284,0.0,7.0,92,0.00,,,0.00,meteohub,2013-06-09 04:17:00,
2013-06-08 21:22:00,56.7,54.3,29.81,SW,221,2.0,6.0,92,0.00,,,0.00,meteohub,2013-06-09 04:22:00,
2013-06-08 21:27:00,56.7,54.7,29.81,SW,219,2.0,6.0,93,0.00,,,0.00,meteohub,2013-06-09 04:27:00,
2013-06-08 21:32:00,56.7,54.7,29.82,SW,233,1.0,7.0,93,0.00,,,0.00,meteohub,2013-06-09 04:32:00,
2013-06-08 21:37:00,56.5,54.5,29.82,West,265,3.0,7.0,93,0.00,,,0.00,meteohub,2013-06-09 04:37:00,
2013-06-08 21:42:00,56.5,54.5,29.83,SSW,213,0.0,7.0,93,0.00,,,0.00,meteohub,2013-06-09 04:42:00,
2013-06-08 21:47:00,56.5,54.5,29.83,South,176,0.0,6.0,93,0.00,,,0.00,meteohub,2013-06-09 04:47:00,
2013-06-08 21:52:00,56.5,54.5,29.83,South,176,0.0,5.0,93,0.00,,,0.00,meteohub,2013-06-09 04:52:00,
2013-06-08 21:57:00,56.5,54.5,29.83,SW,214,0.0,2.0,93,0.00,,,0.00,meteohub,2013-06-09 04:57:00,
2013-06-08 22:02:00,56.5,54.5,29.83,South,171,0.0,3.0,93,0.00,,,0.00,meteohub,2013-06-09 05:02:00,
2013-06-08 22:07:00,56.5,54.5,29.83,South,190,2.0,4.0,93,0.00,,,0.00,meteohub,2013-06-09 05:07:00,
2013-06-08 22:12:00,56.3,54.3,29.84,SW,218,0.0,5.0,93,0.00,,,0.00,meteohub,2013-06-09 05:12:00,
2013-06-08 22:17:00,56.3,54.3,29.84,SW,221,0.0,6.0,93,0.00,,,0.00,meteohub,2013-06-09 05:17:00,
2013-06-08 22:22:00,56.1,54.1,29.84,SW,214,3.0,9.0,93,0.00,,,0.00,meteohub,2013-06-09 05:22:00,
2013-06-08 22:27:00,55.9,54.0,29.84,SSW,200,2.0,9.0,93,0.00,,,0.00,meteohub,2013-06-09 05:27:00,
2013-06-08 22:32:00,55.9,54.3,29.84,SSW,203,3.0,6.0,94,0.00,,,0.00,meteohub,2013-06-09 05:32:00,
2013-06-08 22:37:00,55.9,54.3,29.84,SSW,209,0.0,6.0,94,0.00,,,0.00,meteohub,2013-06-09 05:37:00,
2013-06-08 22:42:00,55.9,54.3,29.84,SW,220,0.0,6.0,94,0.00,,,0.00,meteohub,2013-06-09 05:42:00,
2013-06-08 22:47:00,55.9,54.3,29.84,SSW,205,3.0,6.0,94,0.00,,,0.00,meteohub,2013-06-09 05:47:00,
2013-06-08 22:52:00,55.9,54.3,29.84,SW,232,1.0,6.0,94,0.00,,,0.00,meteohub,2013-06-09 05:52:00,
2013-06-08 22:57:00,55.9,54.3,29.84,SSW,194,0.0,5.0,94,0.00,,,0.00,meteohub,2013-06-09 05:57:00,
2013-06-08 23:02:00,55.9,54.3,29.84,SSE,165,3.0,7.0,94,0.00,,,0.00,meteohub,2013-06-09 06:02:00,
2013-06-08 23:08:00,55.9,54.3,29.84,South,173,3.0,7.0,94,0.00,,,0.00,meteohub,2013-06-09 06:08:00,
2013-06-08 23:13:00,55.9,54.3,29.84,South,180,3.0,7.0,94,0.00,,,0.00,meteohub,2013-06-09 06:13:00,
2013-06-08 23:18:00,55.9,54.3,29.84,SW,227,0.0,6.0,94,0.00,,,0.00,meteohub,2013-06-09 06:18:00,
2013-06-08 23:23:00,55.8,54.1,29.84,SSW,194,0.0,8.0,94,0.00,,,0.00,meteohub,2013-06-09 06:23:00,
2013-06-08 23:28:00,55.8,54.1,29.84,ESE,115,1.0,8.0,94,0.00,,,0.00,meteohub,2013-06-09 06:28:00,
2013-06-08 23:33:00,55.8,54.3,29.84,East,101,1.0,8.0,95,0.00,,,0.00,meteohub,2013-06-09 06:33:00,
2013-06-08 23:38:00,55.8,54.3,29.84,ESE,113,0.0,4.0,95,0.00,,,0.00,meteohub,2013-06-09 06:38:00,
2013-06-08 23:43:00,55.6,54.1,29.83,SE,146,1.0,4.0,95,0.00,,,0.00,meteohub,2013-06-09 06:43:00,
2013-06-08 23:48:00,55.6,54.1,29.84,SSE,148,0.0,2.0,95,0.00,,,0.00,meteohub,2013-06-09 06:48:00,
2013-06-08 23:53:00,55.6,54.1,29.84,SSW,207,2.0,2.0,95,0.00,,,0.00,meteohub,2013-06-09 06:53:00,
2013-06-08 23:58:00,55.6,54.1,29.84,SSW,192,2.0,6.0,95,0.00,,,0.00,meteohub,2013-06-09 06:58:00,